URMT Weather Reports


time (UTC)temp
C
wind
direction
speed
KPH
gust
KPH
rain 1hr
cm
rain 24hr
cm
rain mn
cm
humidity
%
barometer
mb
20260502123053 2 30 11.3 0.0 0.00 0.00 0.00 10 1020.0
20260502113050 2 30 11.3 0.0 0.00 0.00 0.00 93 1020.0
20260502110051 2 20 11.3 0.0 0.00 0.00 0.00 93 1020.0
20260502103051 3 30 11.3 0.0 0.00 0.00 0.00 93 1019.0
20260502070052 0 30 14.5 0.0 0.00 0.00 0.00 10 1019.0
20260502063053 0 10 11.3 0.0 0.00 0.00 0.00 10 1018.0
20260502060051 0 10 11.3 0.0 0.00 0.00 0.00 10 1018.0
20260502053051 0 360 11.3 0.0 0.00 0.00 0.00 10 1018.0
20260502050052 0 360 11.3 0.0 0.00 0.00 0.00 10 1018.0
20260502043051 0 10 11.3 0.0 0.00 0.00 0.00 10 1018.0
20260502040053 0 10 6.4 0.0 0.00 0.00 0.00 10 1018.0
20260502033051 0 10 6.4 0.0 0.00 0.00 0.00 10 1018.0
20260502030051 0 30 6.4 0.0 0.00 0.00 0.00 10 1017.0
20260502023051 0 30 6.4 0.0 0.00 0.00 0.00 10 1017.0
20260502020055 0 30 11.3 0.0 0.00 0.00 0.00 10 1017.0
20260502013051 0 20 14.5 0.0 0.00 0.00 0.00 10 1017.0
20260502010052 0 20 14.5 0.0 0.00 0.00 0.00 10 1017.0
20260502003052 1 20 14.5 0.0 0.00 0.00 0.00 10 1016.0
20260502000051 1 50 20.9 0.0 0.00 0.00 0.00 10 1016.0
20260501233054 1 60 20.9 0.0 0.00 0.00 0.00 10 1016.0
20260501230052 1 70 20.9 0.0 0.00 0.00 0.00 10 1016.0
20260501223053 1 70 17.7 0.0 0.00 0.00 0.00 10 1016.0
20260501220051 1 60 20.9 0.0 0.00 0.00 0.00 10 1016.0
20260501213052 1 60 20.9 0.0 0.00 0.00 0.00 10 1017.0
20260501210052 2 50 14.5 0.0 0.00 0.00 0.00 93 1017.0
20260501203052 2 70 20.9 0.0 0.00 0.00 0.00 10 1016.0
20260501200052 2 70 25.7 0.0 0.00 0.00 0.00 93 1016.0
20260501193054 2 80 25.7 0.0 0.00 0.00 0.00 10 1016.0
20260501190052 2 70 25.7 0.0 0.00 0.00 0.00 10 1016.0
20260501183056 2 70 20.9 0.0 0.00 0.00 0.00 10 1016.0
20260501180052 2 60 25.7 0.0 0.00 0.00 0.00 10 1016.0
20260501173052 2 60 25.7 0.0 0.00 0.00 0.00 10 1016.0
20260501170053 3 60 20.9 0.0 0.00 0.00 0.00 93 1016.0
20260501163054 3 60 17.7 0.0 0.00 0.00 0.00 93 1016.0
20260501160054 3 60 14.5 0.0 0.00 0.00 0.00 93 1016.0